This is the latest recevied weather packets stored in our database for station/object VE6HFD-WX. If no packets are shown the sender has not sent any weather packets the latest 10 day(s).
| Time | Temp. | Humidity | Pressure | Rain* | Wind** | Luminosity | Snow |
|---|---|---|---|---|---|---|---|
| 1787833836 | 12.22° C | 73% | 1007.6 hPa | 0 mm | - | - | - |
| 1787833537 | 12.22° C | 72% | 1007.7 hPa | 0 mm | - | - | - |
| 1787833206 | 12.22° C | 72% | 1007.7 hPa | 0 mm | - | - | - |
| 1787832877 | 12.22° C | 71% | 1007.9 hPa | 0 mm | - | - | - |
| 1787832547 | 12.22° C | 71% | 1007.8 hPa | 0 mm | - | - | - |
| 1787832217 | 12.22° C | 70% | 1008 hPa | 0 mm | - | - | - |
| 1787831887 | 12.22° C | 70% | 1007.9 hPa | 0 mm | - | - | - |
| 1787831587 | 12.22° C | 70% | 1008 hPa | 0 mm | - | - | - |
| 1787831257 | 12.22° C | 70% | 1008.3 hPa | 0 mm | - | - | - |
| 1787830927 | 12.22° C | 69% | 1008.4 hPa | 0 mm | - | - | - |
| 1787830597 | 12.22° C | 69% | 1008.2 hPa | 0 mm | - | - | - |
| 1787830297 | 12.78° C | 69% | 1008.2 hPa | 0 mm | - | - | - |
| 1787829967 | 12.78° C | 69% | 1008.3 hPa | 0 mm | - | - | - |
| 1787829637 | 12.78° C | 68% | 1008.4 hPa | 0 mm | - | - | - |
| 1787829307 | 12.78° C | 67% | 1008.2 hPa | 0 mm | - | - | - |
| 1787829007 | 12.78° C | 67% | 1008.1 hPa | 0 mm | - | - | - |
| 1787828677 | 13.33° C | 66% | 1007.9 hPa | 0 mm | - | - | - |
| 1787828377 | 13.89° C | 64% | 1008 hPa | 0 mm | - | - | - |
| 1787828047 | 14.44° C | 63% | 1008.1 hPa | 0 mm | - | - | - |
| 1787827717 | 14.44° C | 63% | 1008.1 hPa | 0 mm | - | - | - |
| 1787827417 | 14.44° C | 64% | 1008.2 hPa | 0 mm | - | - | - |
| 1787827087 | 14.44° C | 65% | 1008.3 hPa | 0 mm | - | - | - |
| 1787826757 | 13.33° C | 67% | 1008.5 hPa | 0 mm | - | - | - |
| 1787826457 | 12.78° C | 68% | 1008.5 hPa | 0 mm | - | - | - |
| 1787826127 | 12.78° C | 68% | 1008.4 hPa | 0 mm | - | - | - |
* Rain latest hour (hover to see other rain measurements)
** Current wind speed in m/s (hover to see current wind gust speed)